�������l�o���
Date,Time,MP-1(��Sv/h),MP-2(��Sv/h),MP-3(��Sv/h),MP-4(��Sv/h),MP-5(��Sv/h),MP-6(��Sv/h),MP-7(��Sv/h),����,����(m/s),���J
2017/09/11,00:00,0.351,0.214,0.352,0.329,0.317,0.174,0.107,�쓌,0.8,��
2017/09/11,00:10,0.350,0.214,0.350,0.331,0.320,0.173,0.106,��쐼,1.0,��
2017/09/11,00:20,0.350,0.215,0.353,0.329,0.316,0.173,0.106,-,CALM,��
2017/09/11,00:30,0.351,0.215,0.349,0.331,0.319,0.173,0.106,���쐼,0.7,��
2017/09/11,00:40,0.348,0.214,0.351,0.329,0.316,0.173,0.106,-,CALM,��
2017/09/11,00:50,0.352,0.215,0.350,0.329,0.319,0.173,0.107,��쓌,0.5,��
2017/09/11,01:00,0.348,0.214,0.350,0.331,0.318,0.174,0.106,��,1.0,��
2017/09/11,01:10,0.351,0.214,0.352,0.328,0.317,0.173,0.107,�쓌,0.5,��
2017/09/11,01:20,0.349,0.213,0.351,0.331,0.319,0.174,0.105,��,0.7,��
2017/09/11,01:30,0.350,0.214,0.352,0.327,0.315,0.173,0.106,-,CALM,��
2017/09/11,01:40,0.351,0.214,0.350,0.330,0.318,0.173,0.107,��쓌,0.8,��
2017/09/11,01:50,0.347,0.215,0.352,0.328,0.317,0.175,0.105,��쓌,0.9,��
2017/09/11,02:00,0.352,0.214,0.350,0.330,0.318,0.173,0.107,-,CALM,��
2017/09/11,02:10,0.348,0.215,0.352,0.330,0.317,0.173,0.106,�k�k��,0.7,��
2017/09/11,02:20,0.353,0.215,0.351,0.329,0.317,0.174,0.106,�k�k��,0.8,��
2017/09/11,02:30,0.350,0.214,0.351,0.331,0.319,0.174,0.106,�k,0.8,��
2017/09/11,02:40,0.350,0.215,0.352,0.328,0.315,0.174,0.107,�k,1.1,��
2017/09/11,02:50,0.351,0.214,0.350,0.332,0.320,0.173,0.107,�k,0.8,��
2017/09/11,03:00,0.349,0.214,0.353,0.329,0.317,0.174,0.106,�k�k��,0.5,��
2017/09/11,03:10,0.352,0.213,0.350,0.331,0.318,0.174,0.106,-,CALM,��
2017/09/11,03:20,0.348,0.215,0.353,0.329,0.318,0.175,0.106,�쐼,0.5,��
2017/09/11,03:30,0.352,0.213,0.350,0.329,0.317,0.172,0.107,�쐼,1.2,��
2017/09/11,03:40,0.350,0.214,0.352,0.330,0.319,0.175,0.106,�쐼,2.4,��
2017/09/11,03:50,0.350,0.214,0.351,0.329,0.316,0.173,0.106,��쐼,1.9,��
2017/09/11,04:00,0.353,0.216,0.351,0.331,0.320,0.174,0.106,��,2.5,��
2017/09/11,04:10,0.349,0.214,0.353,0.327,0.316,0.174,0.107,��쐼,2.2,��
2017/09/11,04:20,0.351,0.215,0.352,0.331,0.319,0.174,0.106,�쐼,2.1,��
2017/09/11,04:30,0.348,0.213,0.353,0.329,0.319,0.174,0.106,�쐼,2.2,��
2017/09/11,04:40,0.351,0.214,0.351,0.331,0.316,0.173,0.106,��쐼,2.3,��
2017/09/11,04:50,0.350,0.214,0.353,0.330,0.318,0.174,0.106,�쐼,1.7,��
2017/09/11,05:00,0.351,0.214,0.350,0.329,0.316,0.173,0.105,�쐼,1.4,��
2017/09/11,05:10,0.351,0.213,0.353,0.330,0.320,0.174,0.106,���쐼,1.1,��
2017/09/11,05:20,0.350,0.215,0.351,0.327,0.318,0.173,0.107,�쐼,0.8,��
2017/09/11,05:30,0.352,0.214,0.353,0.330,0.317,0.174,0.106,��,0.7,��
2017/09/11,05:40,0.348,0.214,0.350,0.329,0.318,0.174,0.107,��,0.7,��
2017/09/11,05:50,0.352,0.214,0.352,0.330,0.316,0.175,0.106,��,0.9,��
2017/09/11,06:00,0.349,0.214,0.351,0.328,0.321,0.174,0.107,��쓌,1.4,��
2017/09/11,06:10,0.352,0.214,0.353,0.331,0.317,0.174,0.106,��쓌,1.4,��
2017/09/11,06:20,0.349,0.214,0.354,0.331,0.318,0.174,0.107,�쓌,1.1,��
2017/09/11,06:30,0.350,0.215,0.350,0.329,0.318,0.173,0.106,��쐼,1.4,��
2017/09/11,06:40,0.351,0.214,0.355,0.331,0.317,0.175,0.107,�쐼,1.9,��
2017/09/11,06:50,0.348,0.215,0.351,0.327,0.320,0.173,0.107,��쐼,1.2,��
2017/09/11,07:00,0.352,0.214,0.352,0.332,0.317,0.175,0.106,��쐼,1.8,��
2017/09/11,07:10,0.349,0.215,0.351,0.329,0.317,0.174,0.106,��쓌,1.1,��
2017/09/11,07:20,0.350,0.214,0.350,0.329,0.319,0.173,0.106,��,0.8,��
2017/09/11,07:30,0.353,0.213,0.355,0.330,0.316,0.173,0.106,��,0.9,��
2017/09/11,07:40,0.348,0.215,0.350,0.329,0.317,0.175,0.107,-,CALM,��
2017/09/11,07:50,0.351,0.215,0.352,0.327,0.320,0.173,0.107,�k�k��,0.7,��
2017/09/11,08:00,0.352,0.214,0.352,0.330,0.316,0.174,0.107,-,CALM,��
2017/09/11,08:10,0.348,0.214,0.350,0.330,0.315,0.175,0.107,-,CALM,��
2017/09/11,08:20,0.350,0.216,0.353,0.328,0.319,0.174,0.107,��쐼,0.5,��
2017/09/11,08:30,0.353,0.216,0.354,0.326,0.320,0.175,0.107,-,CALM,��
2017/09/11,08:40,0.350,0.214,0.349,0.330,0.317,0.175,0.107,��쓌,0.7,��
2017/09/11,08:50,0.349,0.213,0.351,0.332,0.317,0.175,0.107,��,0.5,��
2017/09/11,09:00,0.352,0.216,0.355,0.331,0.315,0.175,0.107,�k,0.8,��
2017/09/11,09:10,0.353,0.217,0.352,0.328,0.319,0.175,0.107,���k��,0.5,��
2017/09/11,09:20,0.351,0.215,0.349,0.327,0.321,0.175,0.105,-,CALM,��
2017/09/11,09:30,0.349,0.216,0.353,0.327,0.320,0.175,0.104,��쓌,1.0,��
2017/09/11,09:40,0.349,0.214,0.354,0.331,0.318,0.175,0.104,��쓌,1.1,��
2017/09/11,09:50,0.352,0.213,0.352,0.332,0.317,0.175,0.104,��,2.9,��
2017/09/11,10:00,0.353,0.215,0.349,0.332,0.315,0.174,0.105,��쓌,1.8,��
2017/09/11,10:10,0.349,0.216,0.352,0.330,0.315,0.175,0.106,��쓌,2.6,��
2017/09/11,10:20,0.347,0.215,0.352,0.326,0.316,0.177,0.105,��,4.4,��
2017/09/11,10:30,0.346,0.215,0.351,0.326,0.315,0.174,0.104,��,4.8,��
2017/09/11,10:40,0.350,0.213,0.349,0.327,0.314,0.173,0.102,��쐼,5.3,��
2017/09/11,10:50,0.353,0.214,0.347,0.326,0.316,0.173,0.103,��쐼,5.9,��
2017/09/11,11:00,0.351,0.214,0.347,0.325,0.315,0.174,0.102,��,7.7,��
2017/09/11,11:10,0.350,0.212,0.353,0.327,0.315,0.173,0.102,��,8.4,��
2017/09/11,11:20,0.349,0.214,0.353,0.326,0.316,0.173,0.103,��,10.1,��
2017/09/11,11:30,0.347,0.212,0.351,0.326,0.315,0.173,0.103,��,11.0,��
2017/09/11,11:40,0.346,0.212,0.348,0.331,0.316,0.173,0.103,��,12.6,��
2017/09/11,11:50,0.346,0.211,0.346,0.332,0.320,0.174,0.105,��,10.9,��
2017/09/11,12:00,0.347,0.211,0.347,0.329,0.322,0.174,0.104,��,10.6,��
2017/09/11,12:10,0.352,0.213,0.350,0.330,0.318,0.173,0.105,��,11.7,��
2017/09/11,12:20,0.351,0.211,0.352,0.328,0.316,0.173,0.104,��,11.6,��
2017/09/11,12:30,0.351,0.212,0.350,0.328,0.315,0.173,0.105,��,12.1,��
2017/09/11,12:40,0.347,0.211,0.349,0.325,0.315,0.173,0.103,��,13.5,��
2017/09/11,12:50,0.348,0.213,0.349,0.327,0.315,0.174,0.103,��,12.5,��
2017/09/11,13:00,0.347,0.212,0.348,0.326,0.315,0.172,0.104,��,11.9,��
2017/09/11,13:10,0.347,0.213,0.347,0.327,0.315,0.173,0.104,��,11.5,��
2017/09/11,13:20,0.347,0.213,0.349,0.329,0.315,0.173,0.103,��,11.2,��
2017/09/11,13:30,0.347,0.214,0.349,0.328,0.315,0.173,0.103,��,11.3,��
2017/09/11,13:40,0.347,0.213,0.347,0.327,0.315,0.173,0.102,��,12.1,��
2017/09/11,13:50,0.347,0.213,0.348,0.327,0.316,0.173,0.103,��,11.6,��
2017/09/11,14:00,0.351,0.213,0.348,0.327,0.316,0.175,0.105,��,11.7,��
2017/09/11,14:10,0.353,0.212,0.352,0.332,0.316,0.173,0.104,��,10.6,��
2017/09/11,14:20,0.350,0.215,0.353,0.330,0.320,0.173,0.105,��,12.1,��
2017/09/11,14:30,0.348,0.215,0.352,0.329,0.321,0.173,0.104,��,11.6,��
2017/09/11,14:40,0.348,0.214,0.347,0.327,0.317,0.174,0.103,��,9.8,��
2017/09/11,14:50,0.353,0.212,0.350,0.331,0.316,0.174,0.104,��,9.9,��
2017/09/11,15:00,0.351,0.214,0.353,0.333,0.318,0.174,0.104,��,10.1,��
2017/09/11,15:10,0.348,0.216,0.351,0.329,0.320,0.173,0.103,��,9.2,��
2017/09/11,15:20,0.349,0.216,0.350,0.328,0.318,0.173,0.103,��,9.7,��
2017/09/11,15:30,0.352,0.213,0.350,0.333,0.316,0.175,0.102,��,9.2,��
2017/09/11,15:40,0.349,0.215,0.354,0.331,0.318,0.174,0.104,��,8.3,��
2017/09/11,15:50,0.346,0.214,0.351,0.329,0.321,0.173,0.103,��,9.4,��
2017/09/11,16:00,0.349,0.214,0.349,0.328,0.316,0.173,0.103,��,9.3,��
2017/09/11,16:10,0.352,0.212,0.351,0.331,0.313,0.174,0.104,��,7.8,��
2017/09/11,16:20,0.350,0.214,0.353,0.331,0.320,0.175,0.104,��쐼,7.8,��
2017/09/11,16:30,0.348,0.214,0.350,0.328,0.318,0.173,0.104,��쐼,7.8,��
2017/09/11,16:40,0.352,0.213,0.350,0.330,0.317,0.173,0.104,��쐼,7.5,��
2017/09/11,16:50,0.351,0.214,0.353,0.332,0.315,0.174,0.103,��쐼,8.9,��
2017/09/11,17:00,0.348,0.216,0.350,0.330,0.318,0.173,0.103,��쐼,8.2,��
2017/09/11,17:10,0.349,0.213,0.348,0.327,0.316,0.173,0.103,��쐼,9.3,��
2017/09/11,17:20,0.352,0.213,0.353,0.332,0.316,0.174,0.105,��쐼,8.7,��
2017/09/11,17:30,0.350,0.214,0.353,0.330,0.321,0.174,0.104,��쐼,6.5,��
2017/09/11,17:40,0.349,0.214,0.349,0.327,0.318,0.173,0.105,��쐼,8.2,��
2017/09/11,17:50,0.352,0.214,0.352,0.331,0.314,0.174,0.105,��쐼,6.4,��
2017/09/11,18:00,0.351,0.215,0.352,0.331,0.318,0.175,0.105,��쐼,8.0,��
2017/09/11,18:10,0.347,0.214,0.349,0.327,0.317,0.173,0.103,��쐼,7.5,��
2017/09/11,18:20,0.351,0.214,0.352,0.330,0.315,0.173,0.104,��쐼,7.3,��
2017/09/11,18:30,0.353,0.215,0.352,0.332,0.319,0.175,0.104,��,6.1,��
2017/09/11,18:40,0.349,0.214,0.350,0.328,0.318,0.174,0.104,��쐼,6.7,�L
2017/09/11,18:50,0.351,0.214,0.351,0.330,0.315,0.172,0.104,��쐼,6.4,��
2017/09/11,19:00,0.352,0.216,0.353,0.332,0.318,0.174,0.104,��쐼,5.9,�L
2017/09/11,19:10,0.348,0.215,0.349,0.329,0.318,0.174,0.104,��쐼,5.0,��
2017/09/11,19:20,0.350,0.213,0.351,0.328,0.315,0.173,0.104,��쐼,4.4,�L
2017/09/11,19:30,0.352,0.215,0.354,0.331,0.317,0.175,0.105,��,5.1,�L
2017/09/11,19:40,0.349,0.213,0.351,0.329,0.320,0.174,0.103,��쐼,7.8,�L
2017/09/11,19:50,0.352,0.215,0.351,0.329,0.315,0.173,0.104,��쐼,8.7,��
2017/09/11,20:00,0.353,0.214,0.353,0.332,0.318,0.174,0.105,��쐼,8.6,��
2017/09/11,20:10,0.349,0.213,0.351,0.330,0.319,0.174,0.104,��쐼,8.6,��
2017/09/11,20:20,0.349,0.215,0.348,0.327,0.315,0.173,0.104,��쐼,7.9,�L
2017/09/11,20:30,0.351,0.213,0.355,0.331,0.315,0.173,0.105,��쐼,7.8,�L
2017/09/11,20:40,0.349,0.214,0.352,0.329,0.320,0.174,0.104,��쐼,8.6,��
2017/09/11,20:50,0.349,0.214,0.349,0.328,0.315,0.173,0.104,��,7.6,��
2017/09/11,21:00,0.353,0.214,0.354,0.331,0.314,0.173,0.104,��,7.0,��
2017/09/11,21:10,0.349,0.214,0.351,0.332,0.319,0.175,0.104,��쐼,8.0,��
2017/09/11,21:20,0.348,0.216,0.347,0.329,0.319,0.173,0.105,��,8.1,�L
2017/09/11,21:30,0.354,0.213,0.353,0.330,0.315,0.173,0.104,��쐼,9.7,�L
2017/09/11,21:40,0.352,0.215,0.355,0.332,0.318,0.175,0.105,��쐼,9.6,�L
2017/09/11,21:50,0.349,0.216,0.351,0.329,0.318,0.175,0.105,��쐼,10.7,�L
2017/09/11,22:00,0.353,0.214,0.355,0.330,0.316,0.173,0.106,��쐼,9.7,�L
2017/09/11,22:10,0.350,0.216,0.355,0.334,0.322,0.176,0.106,��,8.9,�L
2017/09/11,22:20,0.351,0.215,0.351,0.329,0.319,0.175,0.105,��쐼,8.1,�L
2017/09/11,22:30,0.354,0.215,0.356,0.331,0.316,0.175,0.107,��,8.4,�L
2017/09/11,22:40,0.351,0.217,0.352,0.334,0.322,0.176,0.107,��쐼,8.1,�L
2017/09/11,22:50,0.351,0.215,0.352,0.328,0.318,0.176,0.106,��쐼,7.7,�L
2017/09/11,23:00,0.355,0.216,0.354,0.332,0.315,0.175,0.107,��쐼,7.7,�L
2017/09/11,23:10,0.350,0.216,0.352,0.332,0.320,0.175,0.106,��쐼,8.1,�L
2017/09/11,23:20,0.352,0.214,0.353,0.330,0.318,0.174,0.106,��,8.5,�L
2017/09/11,23:30,0.351,0.217,0.354,0.332,0.317,0.174,0.107,��,8.9,�L
2017/09/11,23:40,0.348,0.217,0.352,0.330,0.321,0.177,0.107,��,9.4,�L
2017/09/11,23:50,0.353,0.215,0.354,0.329,0.317,0.176,0.108,��,9.7,�L
